Location: Passau
(48.5830°N, 13.4830°E)
Time: 23:41:37
(UTC+02:00)

N. Korean satellite - Pass Details

Date: 28 September 2021
Orbit: 450 x 495 km, 97.3° (Epoch: 23 October)

Event Time Altitude Azimuth Distance (km) Brightness Sun altitude
Rises 05:40:27 0° 25° (NNE) 2,536 10.8 -14.1°
Reaches altitude 10° 05:42:51 10° 41° (NE) 1,661 10.1 -13.7°
Maximum altitude 05:45:42 22° 94° (E) 1,088 9.3 -13.2°
Drops below altitude 10° 05:48:35 10° 148° (SSE) 1,668 9.5 -12.8°
Sets 05:50:59 0° 163° (SSE) 2,551 10.3 -12.4°
